Location: Cormont
(50.5693°N, 1.7416°E)
Time: 20:32:25
(UTC+00:00)

Daily predictions for brighter satellites

Satellite Brightness Start Highest point End
(mag) Time Altitude Azimuth Time Altitude Azimuth Time Altitude Azimuth
Cosmos 1515 Rocket 3.9 16:49:36 10° SSW 16:53:53 70° WNW 16:58:14 10° N
Tsikada Rocket 4.0 16:48:34 10° S 16:54:38 66° E 17:00:45 10° NNE
BlueWalker 3 2.1 16:52:02 10° WNW 16:55:38 54° N 16:59:14 10° E
USA 81 4.1 16:51:33 10° S 16:56:46 67° E 17:02:01 10° N
BREEZE-M DEB (TANK) 2.8 16:55:11 10° SSW 16:57:10 23° SSE 16:59:23 10° E
Cosmos 1455 1.7 16:54:31 10° N 16:57:43 60° ENE 17:00:53 10° SSE
Cosmos 2278 Rocket 2.2 16:52:19 10° NNW 16:57:58 64° ENE 17:03:35 10° SE
COSMO-SKYMED 1 4.1 16:57:44 10° NE 17:00:44 18° E 17:03:42 10° SE
Cosmos 2219 Rocket 2.5 16:55:31 10° SW 17:01:05 67° WNW 17:06:42 10° NNE
ARGOS Delta rocket 3.8 16:58:14 10° SSE 17:02:45 55° ENE 17:07:07 10° N
ISS -1.9 17:00:32 10° SSW 17:03:05 20° SE 17:05:37 10° E
Cosmos 2084 Rocket 4.4 17:00:03 10° NW 17:04:01 50° SW 17:07:53 10° SSE
CZ-4C R/B 3.4 17:01:45 10° SSE 17:04:32 16° ESE 17:07:41 10° ENE
CSL-04 DEB 4.2 17:02:51 10° SSE 17:06:39 60° ENE 17:10:24 10° N
Meteor 1-21 4.3 17:03:39 10° S 17:09:07 57° E 17:14:39 10° NNE
Cosmos 1758 4.2 17:06:21 10° NNW 17:10:07 52° W 17:13:53 10° S
USA 306 2.3 17:08:57 10° WNW 17:10:49 31° N 17:12:55 12° ENE
SL-14 R/B 3.8 17:07:35 10° SSW 17:11:18 60° WNW 17:15:04 10° N
CORIOLIS 4.2 17:06:07 10° SSE 17:11:34 89° WSW 17:17:03 10° NNW
Cosmos 1763 Rocket 3.7 17:07:02 10° S 17:12:06 54° ESE 17:17:07 10° NNE
Spot 4 Rocket 4.0 17:07:59 10° SSE 17:13:06 76° ENE 17:18:15 10° NNW
Cosmos 1733 Rocket 3.3 17:09:35 10° N 17:13:50 45° ENE 17:18:04 10° SSE
YAOGAN 1 3.7 17:10:47 10° ESE 17:13:59 21° ENE 17:17:13 10° NNE
Cosmos 540 Rocket 3.7 17:12:55 10° S 17:17:50 48° ESE 17:22:46 10° NNE
Landsat 7 4.3 17:15:43 10° SE 17:20:00 37° ENE 17:24:18 10° N
Cosmos 2322 3.8 17:14:43 10° SSW 17:20:27 87° WNW 17:26:14 10° NNE
Cosmos 468 Rocket 4.4 17:16:56 10° S 17:21:47 41° ESE 17:26:36 10° NE
USA 215 3.5 17:16:14 10° ENE 17:22:44 69° NNW 17:29:12 10° WSW
Cosmos 2228 Rocket 3.5 17:21:27 10° SSE 17:25:43 43° E 17:30:03 10° NNE
Cosmos 2279 Rocket 3.9 17:19:44 10° N 17:25:59 75° E 17:32:09 10° SSE
NOSS 8 (A) 4.1 17:25:06 10° NW 17:28:00 88° SW 17:31:21 10° SE
Cosmos 1980 Rocket 4.5 17:26:41 10° NNW 17:28:09 11° NNW 17:29:37 10° N
Cosmos 1656 Rocket 4.5 17:23:27 10° NNW 17:28:11 29° NE 17:32:56 10° ESE
Cosmos 1898 Rocket 3.6 17:23:26 10° NNW 17:28:39 55° ENE 17:33:51 10° SE
Cosmos 841 Rocket 4.5 17:27:06 10° SSE 17:31:24 26° E 17:35:00 13° NE
Aureole 1 Rocket 4.3 17:24:56 10° NNW 17:32:42 72° ENE 17:39:41 10° SSE
PSLV R/B 3.6 17:29:49 10° S 17:33:52 77° WSW 17:37:59 10° NNW
Okean 1-7 3.7 17:35:39 10° SSE 17:39:26 32° E 17:43:15 10° NNE
Cosmos 1980 3.9 17:34:13 10° S 17:39:41 54° ESE 17:44:57 11° NE
SL-16 R/B 3.6 17:36:08 10° SE 17:39:42 17° E 17:40:55 16° E
NOSS 8 (E) 4.5 17:38:36 10° SW 17:42:39 71° SE 17:44:41 21° NE
Cosmos 1953 2.0 17:38:58 10° N 17:42:43 88° E 17:46:27 10° S
SMAP 4.2 17:38:32 10° S 17:43:02 48° W 17:47:34 10° NNW
SKYMED 2 3.8 17:44:53 10° NNE 17:49:07 49° E 17:53:20 10° S
NOSS 0 Rocket 3.9 17:43:25 10° SSW 17:49:34 81° ESE 17:55:40 10° NNE
Cosmos 1818 3.7 17:45:57 10° NW 17:51:19 54° NE 17:56:19 12° ESE
ATLAS 2AS CENTAUR R/B 2.7 17:46:06 10° NW 17:52:52 57° NE 17:59:05 12° ESE
SL-16 R/B 4.4 17:48:52 10° N 17:53:53 26° NW 17:58:53 10° WSW
Cosmos 2369 Rocket 3.0 17:49:23 10° NNW 17:54:19 30° NE 17:56:55 21° E
NOSS 8 (H) 4.3 17:50:29 10° SW 17:54:22 79° SE 17:55:55 28° NE
Resurs 01 Rocket 3.7 17:57:26 12° NNE 17:57:26 12° NNE 17:58:00 10° NNE
ACS3 Solar Sail 1.9 17:50:32 10° SSE 17:56:50 63° ENE 18:03:09 10° N
COSMOS 2428 3.2 17:51:17 10° SW 17:56:55 60° NW 18:02:34 10° NNE
IGS 5A 4.3 17:53:48 10° S 17:57:43 52° W 18:01:40 10° NNW
Cosmos 372 Rocket 3.9 17:53:37 10° NNW 17:58:44 87° ENE 18:03:49 10° SSE
Cosmos 2333 Rocket 4.1 17:54:34 10° W 17:58:52 22° NW 18:03:12 10° NNE
DNEPR-1 R/B 4.3 17:58:47 10° NW 18:03:34 56° WSW 18:07:46 10° SSE
BREEZE-M DEB (TANK) 3.5 17:56:33 10° WSW 18:05:38 77° S 18:07:22 31° E
Cosmos 1908 Rocket 3.6 18:02:40 10° N 18:06:56 51° ENE 18:11:08 10° SSE
Cosmos 2322 Rocket 4.3 18:04:29 10° WNW 18:08:14 18° NNW 18:11:59 10° N
Cosmos 2360 Rocket 4.3 18:07:03 10° W 18:11:05 19° NW 18:15:08 10° N
EO 1 Delta rocket 3.7 18:08:17 10° NNE 18:13:04 71° E 18:17:41 10° S
Meteor 1-31 Rocket 2.4 18:09:31 10° SSE 18:13:04 84° ENE 18:16:40 10° NNW
Okean 3 4.0 18:09:35 10° SSW 18:13:38 58° WNW 18:17:44 10° N
Cosmos 1707 Rocket 4.0 18:10:02 10° SSW 18:14:26 65° WNW 18:18:52 10° N
Okean 2 3.6 18:13:30 10° SSW 18:17:25 65° WNW 18:21:23 10° N
Cosmos 2297 4.0 18:12:05 10° NNW 18:17:37 46° NE 18:20:17 28° ESE
Cosmos 1937 Rocket 3.4 18:13:34 10° NNW 18:18:44 86° WSW 18:23:55 10° SSE
SL-16 R/B 4.5 18:16:15 10° NW 18:18:53 13° NNW 18:21:32 10° N
CZ-2C R/B 2.4 18:22:18 55° NE 18:22:18 55° NE 18:25:16 10° N
Cosmos 2026 Rocket 4.2 18:17:09 10° SSE 18:23:11 47° E 18:29:15 10° NNE
Cosmos 858 Rocket 4.4 18:18:05 10° NNW 18:23:19 82° ENE 18:28:33 10° SSE
BREEZE-M DEB (TANK) 3.7 18:12:41 10° WSW 18:26:58 63° SSE 18:28:56 36° E
Cosmos 1943 Rocket 3.5 18:22:11 10° NW 18:27:27 41° WSW 18:32:39 10° S
RESURS DK-1 4.2 18:24:40 10° NW 18:28:16 31° WSW 18:31:50 10° S
Cosmos 1428 Rocket 4.4 18:23:49 10° S 18:29:58 69° E 18:36:06 10° NNE
YAOGAN 3 4.4 18:26:51 10° SSE 18:31:06 86° ENE 18:35:23 10° NNW
Cosmos 1862 Rocket 4.5 18:28:10 10° SSW 18:32:24 48° WNW 18:36:42 10° N
BlueWalker 3 1.6 18:29:56 10° WNW 18:33:37 85° SSW 18:33:53 76° SE
Cosmos 2237 Rocket 2.4 18:28:07 10° SW 18:33:48 71° WNW 18:37:59 19° NNE
COSMO-SKYMED 1 3.1 18:32:59 10° N 18:37:16 59° WNW 18:41:32 10° SSW
CZ-4B R/B 4.4 18:35:27 10° S 18:38:57 50° W 18:42:25 10° NNW
ISS -3.4 18:36:05 10° WSW 18:39:01 62° SW 18:39:01 62° SW
NOAA 6 4.5 18:35:51 10° S 18:40:54 62° WSW 18:46:00 10° NNW
Cosmos 2278 Rocket 4.4 18:37:02 10° NW 18:41:37 26° WSW 18:46:10 10° SSW
USA 306 3.9 18:39:45 10° WNW 18:40:49 23° WNW 18:40:49 23° WNW
Cosmos 1782 Rocket 3.9 18:38:27 10° N 18:41:42 46° NNE 18:41:42 46° NNE
Cosmos 2344 3.8 18:36:46 10° WSW 18:44:05 61° NW 18:48:48 24° NE
Cosmos 2219 Rocket 4.3 18:42:13 10° WNW 18:46:07 19° NW 18:50:02 10° N
YAOGAN 1 3.3 18:45:25 10° S 18:49:35 52° W 18:53:47 10° NNW
YAOGAN 11 3.9 18:51:30 77° SE 18:51:30 77° SE 18:55:37 10° SSW
CZ-4C R/B 1.8 18:47:13 10° SW 18:51:45 85° NW 18:53:04 52° NE
Nadezhda 4 Rocket 4.3 18:47:30 10° SSW 18:53:34 65° WNW 18:59:43 10° N
ATLAS 5 CENTAUR R/B 2.7 18:53:16 10° SSW 18:54:39 24° SSW 18:54:39 24° SSW
Cosmos 2195 Rocket 4.4 18:51:53 10° S 18:58:05 88° W 19:04:16 10° N
Meteor 1-24 Rocket 3.8 18:52:22 10° S 18:58:08 57° E 18:58:09 57° E
CZ-4B R/B 4.4 19:00:45 26° NNE 19:00:45 26° NNE 19:03:21 10° N
SPOT 1/Viking Rocket 3.8 18:55:43 10° S 19:00:51 69° WSW 19:06:01 10° NNW
Cosmos 1703 Rocket 3.7 18:56:40 10° SSW 19:01:07 72° WNW 19:02:12 49° N
USA 215 3.7 19:03:32 41° NE 19:05:20 51° N 19:11:36 10° WNW
Resurs 1-3 4.1 19:01:06 10° S 19:05:21 58° W 19:09:39 10° NNW
Meteor 2-5 Rocket 4.0 19:03:02 10° S 19:07:38 54° SE 19:07:38 54° SE
Cosmos 1656 Rocket 3.9 19:06:43 10° NW 19:12:09 65° WSW 19:14:49 30° S
Cosmos 841 Rocket 4.1 19:07:44 10° SW 19:12:53 54° WNW 19:15:03 32° N
SL-16 R/B 2.1 19:17:19 10° SSW 19:22:50 85° SW 19:22:50 85° SW
Cosmos 1553 Rocket 3.8 19:17:33 10° N 19:23:45 83° E 19:23:51 83° ESE
ADEOS 3.7 19:29:31 70° WNW 19:29:31 70° WNW 19:34:28 10° NNW
Resurs 01 Rocket 4.0 19:34:51 15° NNW 19:34:51 15° NNW 19:35:34 10° NNW
Cosmos 2369 Rocket 2.5 19:33:12 10° NW 19:38:43 62° WSW 19:38:45 62° WSW
Cosmos 1092 Rocket 4.5 19:33:33 10° SSW 19:39:37 58° WNW 19:45:47 10° N
ACS3 Solar Sail 3.7 19:35:24 10° SSW 19:40:49 28° W 19:46:16 10° NNW
ATLAS 2AS CENTAUR R/B 3.5 19:37:18 10° NW 19:43:39 44° WSW 19:46:35 28° S
Cosmos 839 Rocket 4.5 19:47:44 10° SW 19:52:33 52° SW 19:52:33 52° SW
Cosmos 2237 Rocket 4.3 20:14:49 10° W 20:18:55 20° NW 20:19:48 19° NNW
CZ-4C R/B 4.4 20:36:27 10° W 20:38:08 19° WNW 20:38:08 19° WNW
